Regional Weather Roundup
Issued by NWS

Home | Current Version | Previous Version | Graphics & Text | Print | Product List | Glossary Off
Versions: 1 2 3 4 5 6 7 8 9 10 11 12 13 14 15 16 17 18 19 20 21 22 23 24 25 26 27 28 29 30 31 32 33 34 35 36 37 38 39 40 41 42 43 44 45 46 47 48 49 50

000
ASUS43 KTOP 040408
RWRKS

WEATHER ROUNDUP FOR KANSAS
NATIONAL WEATHER SERVICE GOODLAND KS
1100 PM CDT THU SEP 03 2015

NOTE:  "FAIR" INDICATES FEW OR NO CLOUDS BELOW 12,000 FEET WITH NO
SIGNIFICANT WEATHER AND/OR OBSTRUCTIONS TO VISIBILITY.

KSZ001>006-013>018-027>032-041>047-040500-
NORTHWEST KANSAS

CITY           SKY/WX    TMP DP  RH WIND       PRES   REMARKS
GOODLAND       MOCLDY    78  53  41 S8        29.84R
HAYS           CLOUDY    86  57  37 S18G24    29.82S
HILL CITY      CLOUDY    86  59  39 S16G23    29.80S
RUSSELL        CLOUDY    84  61  45 S18G26    29.81S
$$

KSZ061>065-074>080-084>089-040500-
SOUTHWEST KANSAS

CITY           SKY/WX    TMP DP  RH WIND       PRES   REMARKS
DODGE CITY     PTCLDY    80  57  45 S18       29.87R
ELKHART          N/A     78  56  46 S13         N/A
GARDEN CITY    CLOUDY    79  57  46 S10       29.85S
GREAT BEND     MOCLDY    81  61  50 S16       29.84S
LIBERAL        MOCLDY    81  54  39 S15       29.89S
PRATT          PTCLDY    81  55  41 MISG      29.88S
$$

KSZ066>073-081>083-090>101-040500-
SOUTHEAST KANSAS

CITY           SKY/WX    TMP DP  RH WIND       PRES   REMARKS
CHANUTE        PTCLDY    75  69  81 SE7       29.92S
COFFEYVILLE    PTCLDY    74  69  85 SE6       29.91S
HUTCHINSON     CLOUDY    80  63  55 SE10      29.87R
MEDICINE LODGE   N/A     82  61  48 S12       29.86S
NEWTON         CLOUDY    77  63  61 S12       29.91S
PARSONS        PTCLDY    76  70  82 SE3       29.93S
WICHITA INTL   CLOUDY    79  66  64 S13       29.88R
WICHITA JABRA  CLOUDY    79  66  64 S14       29.89R
WICHITA MCCONL CLOUDY    79  65  63 SE13      29.89R
WINFIELD       PTCLDY    78  66  66 SE12      29.91R
$$

KSZ007>012-019>026-033>040-048>060-102>105-040500-
NORTHEAST KANSAS

CITY           SKY/WX    TMP DP  RH WIND       PRES   REMARKS
CONCORDIA      MOCLDY    80  64  58 S15       29.85R
EMPORIA        PTCLDY    76  68  76 S12       29.90S
LAWRENCE       MOCLDY    73  68  84 SE5       29.91S
MANHATTAN      PTCLDY    78  68  71 S6        29.87R
MARYSVILLE     MOCLDY    79  68  69 S9        29.87R
OLATHE IND     PTCLDY    74  68  81 S8        29.93S
OLATHE EXE     PTCLDY    74  68  81 S5        29.92S
SALINA         CLOUDY    82  64  54 S14       29.85R
TOPEKA BILLARD PTCLDY    78  68  71 S7        29.90R
TOPEKA FORBES  MOCLDY    77  68  73 S7        29.90S
$$



USA.gov is the U.S. government's official web portal to all federal, state and local government web resources and services.